Back to catalog

CZ-6A DEB

AliveSSO
NORAD 54486·DEBRIS·🇨🇳 China

Launched Nov 11, 2022 from Taiyuan Satellite Launch Center

Loading…

Next Passes (next 24 hours)

TLE

FreshSource: Space-Track

Epoch: Sep 13, 2026, 13:45 UTC

1 54486U 22151HN  26256.57330161  .00004339  00000-0  15616-2 0  9995
2 54486  98.7998 277.8343 0075291  74.1215 286.8250 14.32668270198375

Track CZ-6A DEB in real time with AllMySat

Download on the App Store